Tracking 18945 objects as of 21-Jan-2018
HD Live streaming from Space Station
objects crossing your sky now

FENGYUN 1C DEB

Track FENGYUN 1C DEB now!
10-day predictions


NORAD ID: 33731
Int'l Code: 1999-025DHU
Perigee: 845.2 km
Apogee: 1,051.3 km
Inclination: 99.3 °
Period: 103.9 minutes
Semi major axis: 7319 km
RCS: 0.0076 m2 (small)
Launch date: May 10, 1999
Source: People's Republic of China (PRC)
Launch site: Taiyaun Space Center, China (TSC)

Note: This is SATELLITE DEBRIS
aabbcc
Your satellite tracking list
Your tracking list is empty




NASA's NSSDC Master Catalog

Two Line Element Set (TLE):
1 33731U 99025DHU 18020.36614433  .00000372  00000-0  33300-3 0  9997
2 33731  99.3223 337.9620 0140768 220.5859 295.5766 13.86439614504727
Source of the keplerian elements: AFSPC